Location: Clanezzo
(45.7500°N, 9.6000°E)
Time: 10:18:24
(UTC+00:00)

CUTE-I - Pass Details

Date: 08 December 2023
Orbit: 807 x 823 km, 98.7° (Epoch: 02 March)

Event Time Altitude Azimuth Distance (km) Brightness Sun altitude
Rises 17:12:34 0° 181° (S) 3,313 ? -15.9°
Reaches altitude 10° 17:14:59 10° 187° (S) 2,388 ? -16.3°
Maximum altitude 17:20:03 47° 261° (W) 1,064 ? -17.2°
Drops below altitude 10° 17:25:12 10° 335° (NNW) 2,414 ? -18.0°
Sets 17:27:40 0° 341° (NNW) 3,353 ? -18.5°
